,,PA_Meas_PMT16A,,PR_Meas_QMR101_102,,RH_Meas_QMH101,,SR_Meas_QMS101,,TA_Meas_QMH101,,GenWind,,GenWind,
time,status,PA,status,PR,status,RH,status,SR,status,TA,status,DirAvg,status,SpdAvg,
2012-01-08, 00:00:05,VALID,920.204,VALID,0,VALID,89.8801,VALID,0,VALID,19.9563,VALID,55,VALID,0.514844,
2012-01-08, 00:01:05,VALID,920.183,VALID,0,VALID,90.2079,VALID,0,VALID,19.9173,VALID,55,VALID,1.05938,
2012-01-08, 00:02:05,VALID,920.173,VALID,0,VALID,90.9169,VALID,0,VALID,19.8393,VALID,123,VALID,1.23438,
2012-01-08, 00:03:05,VALID,920.133,VALID,0,VALID,91.3209,VALID,0,VALID,19.7808,VALID,170,VALID,0.721484,
2012-01-08, 00:04:05,VALID,920.126,VALID,0,VALID,91.6258,VALID,0.107441,VALID,19.7208,VALID,170,VALID,0.991797,
2012-01-08, 00:05:05,VALID,920.12,VALID,0,VALID,92.007,VALID,0.107441,VALID,19.6818,VALID,170,VALID,1.07266,
2012-01-08, 00:06:05,VALID,920.094,VALID,0,VALID,92.3272,VALID,0.107441,VALID,19.6218,VALID,170,VALID,0.402734,
2012-01-08, 00:07:05,VALID,920.108,VALID,0,VALID,92.5559,VALID,0.107441,VALID,19.6038,VALID,170,VALID,0,
2012-01-08, 00:08:05,VALID,920.095,VALID,0,VALID,93.0057,VALID,0,VALID,19.6038,VALID,170,VALID,0.504297,
2012-01-08, 00:09:05,VALID,920.087,VALID,0,VALID,93.4326,VALID,0.107441,VALID,19.5438,VALID,170,VALID,0.660547,
2012-01-08, 00:10:05,VALID,920.098,VALID,0,VALID,93.9129,VALID,0.107441,VALID,19.5453,VALID,170,VALID,0.683984,
2012-01-08, 00:11:05,VALID,920.053,VALID,0,VALID,94.2102,VALID,0,VALID,19.5453,VALID,170,VALID,0.553906,
2012-01-08, 00:12:05,VALID,920.057,VALID,0,VALID,94.3169,VALID,0,VALID,19.5258,VALID,170,VALID,0.252344,
2012-01-08, 00:13:05,VALID,920.048,VALID,0,VALID,94.3093,VALID,0,VALID,19.5258,VALID,170,VALID,0.730078,
2012-01-08, 00:14:05,VALID,920.016,VALID,0,VALID,94.3474,VALID,0.107441,VALID,19.5453,VALID,170,VALID,0.820313,
2012-01-08, 00:15:05,VALID,919.997,VALID,0,VALID,94.2559,VALID,0,VALID,19.5453,VALID,170,VALID,0.966406,
2012-01-08, 00:16:05,VALID,920.015,VALID,0,VALID,94.073,VALID,0.107441,VALID,19.5648,VALID,170,VALID,1.10625,
2012-01-08, 00:17:05,VALID,919.957,VALID,0,VALID,93.829,VALID,0.107441,VALID,19.6038,VALID,170,VALID,0.696094,
2012-01-08, 00:18:05,VALID,919.963,VALID,0,VALID,93.425,VALID,0.107441,VALID,19.6428,VALID,167,VALID,0.784766,
2012-01-08, 00:19:05,VALID,919.999,VALID,0,VALID,93.0362,VALID,0,VALID,19.6233,VALID,167,VALID,1.05156,
2012-01-08, 00:20:05,VALID,919.994,VALID,0,VALID,92.8303,VALID,0,VALID,19.6443,VALID,167,VALID,0.571094,
2012-01-08, 00:21:05,VALID,920,VALID,0,VALID,92.4873,VALID,0,VALID,19.6443,VALID,167,VALID,0.552734,
2012-01-08, 00:22:05,VALID,919.97,VALID,0,VALID,92.1214,VALID,0,VALID,19.6428,VALID,167,VALID,0.679297,
2012-01-08, 00:23:05,VALID,920.01,VALID,0,VALID,91.7249,VALID,0.107441,VALID,19.6428,VALID,167,VALID,0.481641,
2012-01-08, 00:24:05,VALID,919.973,VALID,0,VALID,91.3514,VALID,0.107441,VALID,19.6623,VALID,149,VALID,0.830469,
2012-01-08, 00:25:05,VALID,919.952,VALID,0,VALID,91.0236,VALID,0,VALID,19.7208,VALID,149,VALID,0.640625,
2012-01-08, 00:26:05,VALID,919.929,VALID,0,VALID,90.5662,VALID,0,VALID,19.7403,VALID,143,VALID,1.07187,
2012-01-08, 00:27:05,VALID,919.963,VALID,0,VALID,89.9411,VALID,0.107441,VALID,19.8378,VALID,125,VALID,1.11055,
2012-01-08, 00:28:05,VALID,919.932,VALID,0,VALID,89.6742,VALID,0,VALID,19.8768,VALID,125,VALID,0.876562,
2012-01-08, 00:29:05,VALID,919.934,VALID,0,VALID,89.5599,VALID,0.107441,VALID,19.8753,VALID,125,VALID,1.09219,
2012-01-08, 00:30:05,VALID,919.92,VALID,0,VALID,89.2626,VALID,0,VALID,19.9563,VALID,125,VALID,1.16094,
2012-01-08, 00:31:05,VALID,919.933,VALID,0,VALID,88.9119,VALID,0,VALID,19.9938,VALID,125,VALID,1.36211,
2012-01-08, 00:32:05,VALID,919.906,VALID,0,VALID,88.5841,VALID,0,VALID,20.0118,VALID,125,VALID,0.610937,
2012-01-08, 00:33:05,VALID,919.884,VALID,0,VALID,88.4316,VALID,0,VALID,20.0328,VALID,125,VALID,0.633984,
2012-01-08, 00:34:05,VALID,919.837,VALID,0,VALID,88.3478,VALID,0,VALID,20.0133,VALID,126,VALID,0.946094,
2012-01-08, 00:35:05,VALID,919.804,VALID,0,VALID,88.3173,VALID,0,VALID,19.9938,VALID,126,VALID,0.994922,
2012-01-08, 00:36:05,VALID,919.775,VALID,0,VALID,88.2792,VALID,0,VALID,19.9938,VALID,126,VALID,0.722656,
2012-01-08, 00:37:05,VALID,919.743,VALID,0,VALID,88.4392,VALID,0,VALID,20.0148,VALID,127,VALID,0.759766,
2012-01-08, 00:38:05,VALID,919.745,VALID,0,VALID,88.6222,VALID,0.107441,VALID,19.9548,VALID,127,VALID,0.684766,
2012-01-08, 00:39:05,VALID,919.707,VALID,0,VALID,88.8052,VALID,0,VALID,19.9158,VALID,131,VALID,0.704687,
2012-01-08, 00:40:05,VALID,919.737,VALID,0,VALID,88.8357,VALID,0,VALID,19.9173,VALID,143,VALID,0.920703,
2012-01-08, 00:41:05,VALID,919.739,VALID,0,VALID,89.0034,VALID,0,VALID,19.8588,VALID,151,VALID,0.600781,
2012-01-08, 00:42:05,VALID,919.754,VALID,0,VALID,89.2626,VALID,0,VALID,19.7988,VALID,164,VALID,1.09297,
2012-01-08, 00:43:05,VALID,919.782,VALID,0,VALID,89.2397,VALID,0,VALID,19.7988,VALID,157,VALID,0.556641,
2012-01-08, 00:44:05,VALID,919.786,VALID,0,VALID,89.1635,VALID,0,VALID,19.7793,VALID,144,VALID,1.95703,
2012-01-08, 00:45:05,VALID,919.798,VALID,0,VALID,88.302,VALID,0,VALID,19.9173,VALID,124,VALID,1.59961,
2012-01-08, 00:46:05,VALID,919.791,VALID,0,VALID,87.7836,VALID,0,VALID,19.9938,VALID,119,VALID,1.3957,
2012-01-08, 00:47:05,VALID,919.813,VALID,0,VALID,87.1051,VALID,0,VALID,20.1123,VALID,137,VALID,2.08086,
2012-01-08, 00:48:05,VALID,919.804,VALID,0,VALID,86.7468,VALID,0,VALID,20.1903,VALID,130,VALID,1.20352,
2012-01-08, 00:49:05,VALID,919.799,VALID,0,VALID,86.5639,VALID,0,VALID,20.2098,VALID,129,VALID,1.2418,
2012-01-08, 00:50:05,VALID,919.779,VALID,0,VALID,86.3199,VALID,0.107441,VALID,20.2473,VALID,135,VALID,1.23203,
2012-01-08, 00:51:05,VALID,919.778,VALID,0,VALID,86.1827,VALID,0,VALID,20.2668,VALID,135,VALID,1.05469,
2012-01-08, 00:52:05,VALID,919.754,VALID,0,VALID,86.1598,VALID,0,VALID,20.2879,VALID,131,VALID,0.848828,
2012-01-08, 00:53:05,VALID,919.734,VALID,0,VALID,85.9769,VALID,0,VALID,20.2684,VALID,135,VALID,1.22422,
2012-01-08, 00:54:05,VALID,919.754,VALID,0,VALID,85.8778,VALID,0,VALID,20.2863,VALID,135,VALID,0.631641,
2012-01-08, 00:55:05,VALID,919.773,VALID,0,VALID,85.8549,VALID,0,VALID,20.2863,VALID,135,VALID,0.401172,
2012-01-08, 00:56:05,VALID,919.774,VALID,0,VALID,85.9159,VALID,0,VALID,20.3074,VALID,91,VALID,0.190234,
2012-01-08, 00:57:05,VALID,919.802,VALID,0,VALID,85.9845,VALID,0,VALID,20.2668,VALID,91,VALID,0.0195313,
2012-01-08, 00:58:05,VALID,919.792,VALID,0,VALID,86.0607,VALID,0,VALID,20.2473,VALID,91,VALID,0.130859,
2012-01-08, 00:59:05,VALID,919.787,VALID,0,VALID,86.4724,VALID,0,VALID,20.2083,VALID,91,VALID,0.228516,
2012-01-08, 01:00:05,VALID,919.732,VALID,0,VALID,87.0975,VALID,0,VALID,20.1498,VALID,91,VALID,0.126563,
2012-01-08, 01:01:05,VALID,919.71,VALID,0,VALID,87.311,VALID,0,VALID,20.1108,VALID,91,VALID,0,
2012-01-08, 01:02:05,VALID,919.691,VALID,0,VALID,87.8522,VALID,0,VALID,20.0133,VALID,91,VALID,0.0585938,
2012-01-08, 01:03:05,VALID,919.65,VALID,0,VALID,88.2258,VALID,0,VALID,19.9548,VALID,91,VALID,0.554688,
2012-01-08, 01:04:05,VALID,919.608,VALID,0,VALID,88.0886,VALID,0,VALID,19.8573,VALID,91,VALID,0.397266,
2012-01-08, 01:05:05,VALID,919.59,VALID,0,VALID,89.1254,VALID,0,VALID,19.7598,VALID,91,VALID,0.191016,
2012-01-08, 01:06:05,VALID,919.567,VALID,0,VALID,89.476,VALID,0,VALID,19.6833,VALID,91,VALID,0.440625,
2012-01-08, 01:07:05,VALID,919.528,VALID,0,VALID,89.9639,VALID,0,VALID,19.5648,VALID,91,VALID,0.578516,
2012-01-08, 01:08:05,VALID,919.515,VALID,0,VALID,90.7187,VALID,0,VALID,19.4868,VALID,91,VALID,0.587109,
2012-01-08, 01:09:05,VALID,919.502,VALID,0,VALID,91.1227,VALID,0,VALID,19.4478,VALID,91,VALID,0.7125,
2012-01-08, 01:10:05,VALID,919.481,VALID,0,VALID,90.7568,VALID,0,VALID,19.4283,VALID,91,VALID,0.972656,
2012-01-08, 01:11:05,VALID,919.49,VALID,0,VALID,90.1469,VALID,0,VALID,19.4478,VALID,91,VALID,1.16289,
2012-01-08, 01:12:05,VALID,919.48,VALID,0,VALID,90.1393,VALID,0,VALID,19.4283,VALID,91,VALID,1.10273,
2012-01-08, 01:13:05,VALID,919.456,VALID,0,VALID,90.0783,VALID,0,VALID,19.4283,VALID,91,VALID,1.34805,
2012-01-08, 01:14:05,VALID,919.46,VALID,0,VALID,89.7886,VALID,0,VALID,19.4688,VALID,91,VALID,1.2957,
2012-01-08, 01:15:05,VALID,919.44,VALID,0,VALID,90.1545,VALID,0,VALID,19.4883,VALID,91,VALID,1.36445,
2012-01-08, 01:16:05,VALID,919.442,VALID,0,VALID,90.0478,VALID,0,VALID,19.4673,VALID,91,VALID,1.07539,
2012-01-08, 01:17:05,VALID,919.46,VALID,0,VALID,90.3222,VALID,0,VALID,19.4283,VALID,91,VALID,1.00234,
2012-01-08, 01:18:05,VALID,919.456,VALID,0,VALID,90.6805,VALID,0,VALID,19.3908,VALID,91,VALID,0.764453,
2012-01-08, 01:19:05,VALID,919.484,VALID,0,VALID,90.7339,VALID,0,VALID,19.3323,VALID,91,VALID,0.565234,
2012-01-08, 01:20:05,VALID,919.513,VALID,0,VALID,90.9931,VALID,0,VALID,19.2334,VALID,91,VALID,0.330859,
2012-01-08, 01:21:05,VALID,919.531,VALID,0,VALID,91.1074,VALID,0,VALID,19.1749,VALID,91,VALID,0,
2012-01-08, 01:22:05,VALID,919.522,VALID,0,VALID,91.2294,VALID,0,VALID,19.1164,VALID,91,VALID,0,
2012-01-08, 01:23:05,VALID,919.534,VALID,0,VALID,91.7249,VALID,0,VALID,19.0969,VALID,91,VALID,0.0734375,
2012-01-08, 01:24:05,VALID,919.526,VALID,0,VALID,92.0299,VALID,0,VALID,19.0774,VALID,91,VALID,0,
2012-01-08, 01:25:05,VALID,919.546,VALID,0,VALID,92.5025,VALID,0,VALID,19.0579,VALID,91,VALID,0.308984,
2012-01-08, 01:26:05,VALID,919.548,VALID,0,VALID,91.9918,VALID,0,VALID,19.0384,VALID,91,VALID,0.389844,
2012-01-08, 01:27:05,VALID,919.533,VALID,0,VALID,91.3361,VALID,0,VALID,18.9814,VALID,91,VALID,0.540234,
2012-01-08, 01:28:05,VALID,919.515,VALID,0,VALID,92.129,VALID,0,VALID,18.9229,VALID,91,VALID,0.295312,
2012-01-08, 01:29:05,VALID,919.489,VALID,0,VALID,92.8913,VALID,0,VALID,18.8629,VALID,91,VALID,0,
2012-01-08, 01:30:05,VALID,919.493,VALID,0,VALID,93.2877,VALID,0,VALID,18.9034,VALID,91,VALID,0,
2012-01-08, 01:31:05,VALID,919.47,VALID,0,VALID,93.3182,VALID,0,VALID,18.9229,VALID,91,VALID,0,
2012-01-08, 01:32:05,VALID,919.465,VALID,0,VALID,92.7693,VALID,0,VALID,18.8644,VALID,91,VALID,0,
2012-01-08, 01:33:05,VALID,919.472,VALID,0,VALID,92.9752,VALID,0,VALID,18.8644,VALID,91,VALID,0.173047,
2012-01-08, 01:34:05,VALID,919.456,VALID,0,VALID,93.3259,VALID,0,VALID,18.9229,VALID,91,VALID,0.173438,
2012-01-08, 01:35:05,VALID,919.45,VALID,0,VALID,93.4173,VALID,0,VALID,18.9424,VALID,91,VALID,0.197656,
2012-01-08, 01:36:05,VALID,919.454,VALID,0,VALID,93.3487,VALID,0,VALID,18.9814,VALID,91,VALID,0,
2012-01-08, 01:37:05,VALID,919.41,VALID,0,VALID,93.2268,VALID,0,VALID,18.9619,VALID,91,VALID,0,
2012-01-08, 01:38:05,VALID,919.416,VALID,0,VALID,93.1124,VALID,0,VALID,18.9229,VALID,91,VALID,0.386328,
2012-01-08, 01:39:05,VALID,919.384,VALID,0,VALID,93.1124,VALID,0,VALID,18.8824,VALID,91,VALID,0.481641,
2012-01-08, 01:40:05,VALID,919.401,VALID,0,VALID,93.3564,VALID,0,VALID,18.8839,VALID,91,VALID,0.416406,
2012-01-08, 01:41:05,VALID,919.389,VALID,0,VALID,93.4173,VALID,0,VALID,18.8839,VALID,91,VALID,0.175781,
2012-01-08, 01:42:05,VALID,919.454,VALID,0,VALID,92.2662,VALID,0,VALID,18.8059,VALID,91,VALID,0.208594,
2012-01-08, 01:43:05,VALID,919.425,VALID,0,VALID,92.4415,VALID,0,VALID,18.6889,VALID,91,VALID,0.558984,
2012-01-08, 01:44:05,VALID,919.462,VALID,0,VALID,93.8443,VALID,0,VALID,18.7279,VALID,91,VALID,0.452734,
2012-01-08, 01:45:05,VALID,919.474,VALID,0,VALID,94.233,VALID,0,VALID,18.785,VALID,91,VALID,0.55,
2012-01-08, 01:46:05,VALID,919.509,VALID,0,VALID,94.0348,VALID,0,VALID,18.8434,VALID,91,VALID,0.132813,
2012-01-08, 01:47:05,VALID,919.492,VALID,0,VALID,93.646,VALID,0.107441,VALID,18.8629,VALID,91,VALID,0.0339844,
2012-01-08, 01:48:05,VALID,919.506,VALID,0,VALID,93.3106,VALID,0,VALID,18.9034,VALID,91,VALID,0.0597656,
2012-01-08, 01:49:05,VALID,919.485,VALID,0,VALID,93.059,VALID,0,VALID,18.8839,VALID,91,VALID,0.00117188,
2012-01-08, 01:50:05,VALID,919.519,VALID,0,VALID,92.8913,VALID,0,VALID,18.8644,VALID,91,VALID,0.392578,
2012-01-08, 01:51:05,VALID,919.493,VALID,0,VALID,92.7084,VALID,0,VALID,18.7864,VALID,91,VALID,0.572656,
2012-01-08, 01:52:05,VALID,919.522,VALID,0,VALID,93.7299,VALID,0,VALID,18.8045,VALID,91,VALID,0.412109,
2012-01-08, 01:53:05,VALID,919.527,VALID,0,VALID,93.9205,VALID,0,VALID,18.8449,VALID,91,VALID,0.619531,
2012-01-08, 01:54:05,VALID,919.49,VALID,0,VALID,94.0653,VALID,0,VALID,18.8434,VALID,91,VALID,0.782422,
2012-01-08, 01:55:05,VALID,919.51,VALID,0,VALID,94.2407,VALID,0,VALID,18.9229,VALID,91,VALID,0.666406,
2012-01-08, 01:56:05,VALID,919.504,VALID,0,VALID,94.1034,VALID,0,VALID,18.9814,VALID,91,VALID,0.557031,
2012-01-08, 01:57:05,VALID,919.504,VALID,0,VALID,93.7147,VALID,0,VALID,19.0398,VALID,91,VALID,0.271094,
2012-01-08, 01:58:05,VALID,919.527,VALID,0,VALID,93.3868,VALID,0,VALID,19.0593,VALID,91,VALID,0.0269531,
2012-01-08, 01:59:05,VALID,919.53,VALID,0,VALID,93.0972,VALID,0,VALID,19.0593,VALID,91,VALID,0,
2012-01-08, 02:00:05,VALID,919.543,VALID,0,VALID,92.6931,VALID,0,VALID,19.0398,VALID,91,VALID,0,
2012-01-08, 02:01:05,VALID,919.507,VALID,0,VALID,92.4644,VALID,0,VALID,19.0203,VALID,91,VALID,0,
2012-01-08, 02:02:05,VALID,919.478,VALID,0,VALID,92.1747,VALID,0,VALID,19.0008,VALID,91,VALID,0,
2012-01-08, 02:03:05,VALID,919.413,VALID,0,VALID,91.8698,VALID,0,VALID,18.9409,VALID,91,VALID,0,
2012-01-08, 02:04:05,VALID,919.374,VALID,0,VALID,92.3958,VALID,0,VALID,18.9814,VALID,91,VALID,0,
2012-01-08, 02:05:05,VALID,919.327,VALID,0,VALID,92.7236,VALID,0,VALID,18.9814,VALID,91,VALID,0,
2012-01-08, 02:06:05,VALID,919.307,VALID,0,VALID,92.4339,VALID,0,VALID,18.9619,VALID,91,VALID,0,
2012-01-08, 02:07:05,VALID,919.261,VALID,0,VALID,92.3577,VALID,0,VALID,18.9229,VALID,91,VALID,0,
2012-01-08, 02:08:05,VALID,919.244,VALID,0,VALID,92.0299,VALID,0,VALID,18.8644,VALID,91,VALID,0,
2012-01-08, 02:09:05,VALID,919.236,VALID,0,VALID,92.0223,VALID,0,VALID,18.8449,VALID,91,VALID,0,
2012-01-08, 02:10:05,VALID,919.211,VALID,0,VALID,92.1214,VALID,0,VALID,18.8059,VALID,91,VALID,0,
2012-01-08, 02:11:05,VALID,919.209,VALID,0,VALID,92.9066,VALID,0,VALID,18.8254,VALID,91,VALID,0,
2012-01-08, 02:12:05,VALID,919.176,VALID,0,VALID,93.303,VALID,0,VALID,18.8268,VALID,91,VALID,0.513672,
2012-01-08, 02:13:05,VALID,919.187,VALID,0,VALID,92.8761,VALID,0,VALID,18.7279,VALID,91,VALID,0.717188,
2012-01-08, 02:14:05,VALID,919.146,VALID,0,VALID,92.716,VALID,0,VALID,18.6304,VALID,91,VALID,0.627734,
2012-01-08, 02:15:05,VALID,919.164,VALID,0,VALID,92.9142,VALID,0,VALID,18.5734,VALID,91,VALID,0.481641,
2012-01-08, 02:16:05,VALID,919.136,VALID,0,VALID,92.8227,VALID,0,VALID,18.4745,VALID,91,VALID,0.469141,
2012-01-08, 02:17:05,VALID,919.094,VALID,0,VALID,93.059,VALID,0,VALID,18.416,VALID,91,VALID,0.537891,
2012-01-08, 02:18:05,VALID,919.092,VALID,0,VALID,93.4631,VALID,0,VALID,18.3965,VALID,91,VALID,0.408984,
2012-01-08, 02:19:05,VALID,919.071,VALID,0,VALID,94.0043,VALID,0,VALID,18.3965,VALID,91,VALID,0.489844,
2012-01-08, 02:20:05,VALID,919.076,VALID,0,VALID,94.5913,VALID,0,VALID,18.4745,VALID,91,VALID,0.469141,
2012-01-08, 02:21:05,VALID,919.023,VALID,0,VALID,94.7896,VALID,0,VALID,18.5135,VALID,91,VALID,0.521484,
2012-01-08, 02:22:05,VALID,919.025,VALID,0,VALID,94.7057,VALID,0,VALID,18.5734,VALID,91,VALID,0.471875,
2012-01-08, 02:23:05,VALID,919.039,VALID,0,VALID,94.7667,VALID,0,VALID,18.6304,VALID,91,VALID,0.722266,
2012-01-08, 02:24:05,VALID,919.049,VALID,0,VALID,94.5913,VALID,0,VALID,18.6694,VALID,91,VALID,0.574219,
2012-01-08, 02:25:05,VALID,919.05,VALID,0,VALID,94.416,VALID,0,VALID,18.6889,VALID,91,VALID,0.462891,
2012-01-08, 02:26:05,VALID,919.022,VALID,0,VALID,94.4465,VALID,0,VALID,18.7084,VALID,132,VALID,0.803125,
2012-01-08, 02:27:05,VALID,919.016,VALID,0,VALID,94.3169,VALID,0,VALID,18.7084,VALID,132,VALID,0.860156,
2012-01-08, 02:28:05,VALID,919.018,VALID,0,VALID,94.2712,VALID,0,VALID,18.7279,VALID,132,VALID,0.852344,
2012-01-08, 02:29:05,VALID,919.003,VALID,0,VALID,94.2712,VALID,0,VALID,18.8073,VALID,132,VALID,0.694922,
2012-01-08, 02:30:05,VALID,918.991,VALID,0,VALID,94.0882,VALID,0,VALID,18.8449,VALID,132,VALID,0.524219,
2012-01-08, 02:31:05,VALID,919.003,VALID,0,VALID,93.7299,VALID,0,VALID,18.8839,VALID,132,VALID,0.478906,
2012-01-08, 02:32:05,VALID,919,VALID,0,VALID,93.3335,VALID,0,VALID,18.8839,VALID,132,VALID,0.483203,
2012-01-08, 02:33:05,VALID,919.039,VALID,0,VALID,92.9981,VALID,0,VALID,18.8644,VALID,132,VALID,0.560938,
2012-01-08, 02:34:05,VALID,919.017,VALID,0,VALID,92.9599,VALID,0,VALID,18.8644,VALID,132,VALID,0.629297,
2012-01-08, 02:35:05,VALID,918.998,VALID,0,VALID,92.8303,VALID,0,VALID,18.8449,VALID,132,VALID,0.697266,
2012-01-08, 02:36:05,VALID,919.019,VALID,0,VALID,92.7693,VALID,0,VALID,18.8449,VALID,132,VALID,0.517187,
2012-01-08, 02:37:04,VALID,919.018,VALID,0,VALID,92.8456,VALID,0,VALID,18.8644,VALID,132,VALID,0.380859,
2012-01-08, 02:38:04,VALID,919.035,VALID,0,VALID,92.5864,VALID,0,VALID,18.8254,VALID,132,VALID,0.0910156,
2012-01-08, 02:39:04,VALID,919.041,VALID,0,VALID,91.4886,VALID,0,VALID,18.7084,VALID,132,VALID,0,
2012-01-08, 02:40:04,VALID,919.08,VALID,0,VALID,91.8545,VALID,0,VALID,18.6694,VALID,132,VALID,0,
2012-01-08, 02:41:04,VALID,919.081,VALID,0,VALID,92.2281,VALID,0,VALID,18.6708,VALID,132,VALID,0,
2012-01-08, 02:42:04,VALID,919.089,VALID,0,VALID,92.9752,VALID,0.107441,VALID,18.6499,VALID,132,VALID,0.0558594,
2012-01-08, 02:43:04,VALID,919.083,VALID,0,VALID,93.2115,VALID,0,VALID,18.6109,VALID,132,VALID,0.365234,
2012-01-08, 02:44:04,VALID,919.076,VALID,0,VALID,92.4873,VALID,0,VALID,18.533,VALID,132,VALID,0.208203,
2012-01-08, 02:45:04,VALID,919.031,VALID,0,VALID,92.7998,VALID,0,VALID,18.4759,VALID,132,VALID,0.189063,
2012-01-08, 02:46:04,VALID,918.981,VALID,0,VALID,93.3106,VALID,0,VALID,18.416,VALID,132,VALID,0,
2012-01-08, 02:47:04,VALID,918.958,VALID,0,VALID,93.9052,VALID,0,VALID,18.416,VALID,132,VALID,0.473828,
2012-01-08, 02:48:04,VALID,918.954,VALID,0,VALID,94.1721,VALID,0,VALID,18.3979,VALID,132,VALID,0.766797,
2012-01-08, 02:49:04,VALID,918.941,VALID,0,VALID,94.3931,VALID,0,VALID,18.3979,VALID,132,VALID,0.604688,
2012-01-08, 02:50:04,VALID,918.944,VALID,0,VALID,94.5075,VALID,0,VALID,18.3394,VALID,132,VALID,0.841406,
2012-01-08, 02:51:04,VALID,918.906,VALID,0,VALID,94.5609,VALID,0,VALID,18.2796,VALID,79,VALID,1.01016,
2012-01-08, 02:52:04,VALID,918.896,VALID,0,VALID,94.9649,VALID,0,VALID,18.2796,VALID,79,VALID,1.13789,
2012-01-08, 02:53:04,VALID,918.882,VALID,0,VALID,95.247,VALID,0,VALID,18.3589,VALID,79,VALID,1.05625,
2012-01-08, 02:54:04,VALID,918.857,VALID,0,VALID,95.2546,VALID,0,VALID,18.3979,VALID,79,VALID,0.83125,
2012-01-08, 02:55:04,VALID,918.87,VALID,0,VALID,95.1707,VALID,0,VALID,18.4369,VALID,80,VALID,0.839844,
2012-01-08, 02:56:04,VALID,918.878,VALID,0,VALID,94.9649,VALID,0,VALID,18.416,VALID,79,VALID,0.591797,
2012-01-08, 02:57:04,VALID,918.878,VALID,0,VALID,94.7362,VALID,0,VALID,18.3965,VALID,79,VALID,0.290234,
2012-01-08, 02:58:04,VALID,918.878,VALID,0,VALID,94.7438,VALID,0,VALID,18.377,VALID,79,VALID,0.259766,
2012-01-08, 02:59:04,VALID,918.856,VALID,0,VALID,94.8277,VALID,0,VALID,18.377,VALID,79,VALID,0.139844,
2012-01-08, 03:00:04,VALID,918.868,VALID,0,VALID,94.8277,VALID,0,VALID,18.3979,VALID,79,VALID,0,
2012-01-08, 03:01:04,VALID,918.893,VALID,0,VALID,94.5609,VALID,0,VALID,18.338,VALID,79,VALID,0.00234375,
2012-01-08, 03:02:04,VALID,918.868,VALID,0,VALID,94.4313,VALID,0,VALID,18.3185,VALID,79,VALID,0.424219,
2012-01-08, 03:03:04,VALID,918.881,VALID,0,VALID,94.4008,VALID,0,VALID,18.2796,VALID,79,VALID,0.709375,
2012-01-08, 03:04:04,VALID,918.884,VALID,0,VALID,94.4846,VALID,0,VALID,18.2601,VALID,79,VALID,0.516406,
2012-01-08, 03:05:04,VALID,918.861,VALID,0,VALID,94.3931,VALID,0,VALID,18.2406,VALID,79,VALID,0.35625,
2012-01-08, 03:06:04,VALID,918.845,VALID,0,VALID,94.2635,VALID,0,VALID,18.2211,VALID,79,VALID,0.260938,
2012-01-08, 03:07:04,VALID,918.857,VALID,0,VALID,93.4402,VALID,0,VALID,18.125,VALID,79,VALID,0.239063,
2012-01-08, 03:08:04,VALID,918.851,VALID,0,VALID,93.3792,VALID,0,VALID,18.008,VALID,80,VALID,0.306641,
2012-01-08, 03:09:04,VALID,918.849,VALID,0,VALID,94.1416,VALID,0,VALID,17.9677,VALID,80,VALID,0.291406,
2012-01-08, 03:10:04,VALID,918.811,VALID,0,VALID,94.8505,VALID,0,VALID,18.008,VALID,79,VALID,0.217187,
2012-01-08, 03:11:04,VALID,918.768,VALID,0,VALID,95.4299,VALID,0,VALID,18.047,VALID,79,VALID,0.446875,
2012-01-08, 03:12:04,VALID,918.739,VALID,0,VALID,95.7349,VALID,0,VALID,18.0846,VALID,80,VALID,0.930078,
2012-01-08, 03:13:04,VALID,918.711,VALID,0,VALID,96.0245,VALID,0,VALID,18.2225,VALID,113,VALID,1.18828,
2012-01-08, 03:14:04,VALID,918.69,VALID,0,VALID,96.0322,VALID,0,VALID,18.2406,VALID,113,VALID,1.13477,
2012-01-08, 03:15:04,VALID,918.649,VALID,0,VALID,95.9941,VALID,0,VALID,18.2809,VALID,113,VALID,1.29297,
2012-01-08, 03:16:04,VALID,918.6,VALID,0,VALID,95.9254,VALID,0,VALID,18.2796,VALID,113,VALID,1.11797,
2012-01-08, 03:17:04,VALID,918.612,VALID,0,VALID,95.8187,VALID,0,VALID,18.2796,VALID,113,VALID,1.14219,
2012-01-08, 03:18:04,VALID,918.568,VALID,0,VALID,95.712,VALID,0,VALID,18.3004,VALID,113,VALID,0.8625,
2012-01-08, 03:19:04,VALID,918.627,VALID,0,VALID,95.5214,VALID,0,VALID,18.2796,VALID,113,VALID,0.516016,
2012-01-08, 03:20:04,VALID,918.642,VALID,0,VALID,95.2851,VALID,0,VALID,18.242,VALID,113,VALID,0.554297,
2012-01-08, 03:21:04,VALID,918.652,VALID,0,VALID,94.881,VALID,0,VALID,18.1431,VALID,113,VALID,0.538281,
2012-01-08, 03:22:04,VALID,918.663,VALID,0,VALID,94.1111,VALID,0,VALID,17.9872,VALID,113,VALID,0.807422,
2012-01-08, 03:23:04,VALID,918.69,VALID,0,VALID,94.9878,VALID,0,VALID,18.0275,VALID,113,VALID,0.940625,
2012-01-08, 03:24:04,VALID,918.695,VALID,0,VALID,95.5062,VALID,0,VALID,18.0846,VALID,113,VALID,1.11563,
2012-01-08, 03:25:04,VALID,918.698,VALID,0,VALID,95.7425,VALID,0,VALID,18.1041,VALID,113,VALID,1.05938,
2012-01-08, 03:26:04,VALID,918.674,VALID,0,VALID,95.7577,VALID,0,VALID,18.0846,VALID,126,VALID,0.910937,
2012-01-08, 03:27:04,VALID,918.676,VALID,0,VALID,95.7882,VALID,0,VALID,18.1055,VALID,128,VALID,1.14258,
2012-01-08, 03:28:04,VALID,918.651,VALID,0,VALID,95.7425,VALID,0,VALID,18.0665,VALID,128,VALID,0.969531,
2012-01-08, 03:29:04,VALID,918.645,VALID,0,VALID,95.773,VALID,0,VALID,18.0651,VALID,128,VALID,1.05469,
2012-01-08, 03:30:04,VALID,918.634,VALID,0,VALID,95.7196,VALID,0,VALID,18.0651,VALID,128,VALID,1.02813,
2012-01-08, 03:31:04,VALID,918.629,VALID,0,VALID,95.8797,VALID,0,VALID,18.0846,VALID,128,VALID,0.780859,
2012-01-08, 03:32:04,VALID,918.597,VALID,0,VALID,95.9864,VALID,0,VALID,18.1431,VALID,128,VALID,1.1125,
2012-01-08, 03:33:04,VALID,918.632,VALID,0,VALID,95.9559,VALID,0,VALID,18.1236,VALID,128,VALID,0.965234,
2012-01-08, 03:34:04,VALID,918.62,VALID,0,VALID,96.0017,VALID,0,VALID,18.1431,VALID,128,VALID,0.89375,
2012-01-08, 03:35:04,VALID,918.638,VALID,0,VALID,95.9254,VALID,0,VALID,18.1431,VALID,128,VALID,0.878125,
2012-01-08, 03:36:04,VALID,918.621,VALID,0,VALID,95.834,VALID,0,VALID,18.1821,VALID,128,VALID,1.15898,
2012-01-08, 03:37:04,VALID,918.65,VALID,0,VALID,95.6891,VALID,0,VALID,18.2016,VALID,128,VALID,0.900391,
2012-01-08, 03:38:04,VALID,918.68,VALID,0,VALID,95.59,VALID,0,VALID,18.2406,VALID,128,VALID,0.925391,
2012-01-08, 03:39:04,VALID,918.689,VALID,0,VALID,95.3842,VALID,0,VALID,18.2809,VALID,128,VALID,0.728906,
2012-01-08, 03:40:04,VALID,918.724,VALID,0,VALID,95.1326,VALID,0,VALID,18.2796,VALID,128,VALID,0.412109,
2012-01-08, 03:41:04,VALID,918.71,VALID,0,VALID,94.8048,VALID,0,VALID,18.2601,VALID,128,VALID,0.636328,
2012-01-08, 03:42:04,VALID,918.72,VALID,0,VALID,94.7591,VALID,0,VALID,18.2406,VALID,128,VALID,0.814844,
2012-01-08, 03:43:04,VALID,918.712,VALID,0,VALID,94.7972,VALID,0,VALID,18.2211,VALID,128,VALID,0.396094,
2012-01-08, 03:44:04,VALID,918.71,VALID,0,VALID,95.003,VALID,0,VALID,18.2016,VALID,128,VALID,0.775391,
2012-01-08, 03:45:04,VALID,918.706,VALID,0,VALID,95.1936,VALID,0,VALID,18.1835,VALID,128,VALID,0.880469,
2012-01-08, 03:46:04,VALID,918.71,VALID,0,VALID,95.5748,VALID,0,VALID,18.2211,VALID,128,VALID,0.889453,